H1 CPF 2 NER 2024 10 29 9 303 01 glonass139 H2 1808601 9139 43687 2024 10 29 0 0 0 2024 11 1 23 45 0 900 1 1 0 0 0 1 H9 10 0 60612 0.00000 0 25218995.306 -423972.010 -3766737.424 10 0 60612 900.00000 0 24549132.068 -469160.158 -6883456.513 10 0 60612 1800.00000 0 23508830.353 -394838.254 -9866325.874 10 0 60612 2700.00000 0 22132471.956 -155698.842 -12657309.477 10 0 60612 3600.00000 0 20465007.512 285849.935 -15202090.273 10 0 60612 4500.00000 0 18560139.804 957842.949 -17451133.763 10 0 60612 5400.00000 0 16478157.010 1877323.918 -19360658.006 10 0 60612 6300.00000 0 14283506.801 3049380.495 -20893490.707 10 0 60612 7200.00000 0 12042213.160 4466690.736 -22019796.386 10 0 60612 8100.00000 0 9819244.202 6109601.405 -22717659.364 10 0 60612 9000.00000 0 7675941.174 7946736.044 -22973511.248 10 0 60612 9900.00000 0 5667616.092 9936108.315 -22782394.678 10 0 60612 10800.00000 0 3841418.089 12026694.791 -22148058.362 10 0 60612 11700.00000 0 2234557.123 14160401.973 -21082881.719 10 0 60612 12600.00000 0 872958.475 16274345.646 -19607630.728 10 0 60612 13500.00000 0 -229596.755 18303347.454 -17751049.861 10 0 60612 14400.00000 0 -1071810.490 20182544.409 -15549298.149 10 0 60612 15300.00000 0 -1664673.186 21850002.106 -13045240.545 10 0 60612 16200.00000 0 -2030745.817 23249222.249 -10287608.536 10 0 60612 17100.00000 0 -2202950.289 24331439.462 -7330046.682 10 0 60612 18000.00000 0 -2222920.900 25057611.188 -4230064.013 10 0 60612 18900.00000 0 -2138988.022 25400017.430 -1047911.200 10 0 60612 19800.00000 0 -2003880.577 25343403.601 2154594.173 10 0 60612 20700.00000 0 -1872245.596 24885619.031 5315270.809 10 0 60612 21600.00000 0 -1798090.707 24037724.983 8372781.595 10 0 60612 22500.00000 0 -1832258.306 22823568.352 11267822.457 10 0 60612 23400.00000 0 -2020038.615 21278839.618 13944269.018 10 0 60612 24300.00000 0 -2399022.571 19449655.097 16350259.058 10 0 60612 25200.00000 0 -2997285.230 17390723.176 18439190.305 10 0 60612 26100.00000 0 -3831976.212 15163171.275 20170614.920 10 0 60612 27000.00000 0 -4908376.583 12832124.035 21511014.313 10 0 60612 27900.00000 0 -6219462.058 10464133.057 22434440.277 10 0 60612 28800.00000 0 -7745991.330 8124564.391 22923011.002 10 0 60612 29700.00000 0 -9457116.657 5875051.309 22967253.191 10 0 60612 30600.00000 0 -11311492.259 3771116.928 22566284.226 10 0 60612 31500.00000 0 -13258835.580 1860064.202 21727831.079 10 0 60612 32400.00000 0 -15241877.740 179219.643 20468085.493 10 0 60612 33300.00000 0 -17198623.373 -1245397.351 18811397.720 10 0 60612 34200.00000 0 -19064826.982 -2399925.143 16789813.951 10 0 60612 35100.00000 0 -20776583.721 -3282995.800 14442465.409 10 0 60612 36000.00000 0 -22272927.291 -3905542.865 11814819.781 10 0 60612 36900.00000 0 -23498326.850 -4290089.397 8957808.452 10 0 60612 37800.00000 0 -24404978.558 -4469546.451 5926845.542 10 0 60612 38700.00000 0 -24954795.467 -4485572.745 2780757.069 10 0 60612 39600.00000 0 -25121011.522 -4386564.859 -419359.320 10 0 60612 40500.00000 0 -24889331.581 -4225363.172 -3611321.905 10 0 60612 41400.00000 0 -24258577.804 -4056770.971 -6733076.468 10 0 60612 42300.00000 0 -23240804.306 -3934992.459 -9723907.721 10 0 60612 43200.00000 0 -21860874.385 -3911098.979 -12525626.307 10 0 60612 44100.00000 0 -20155517.007 -4030631.775 -15083707.564 10 0 60612 45000.00000 0 -18171901.628 -4331443.928 -17348359.109 10 0 60612 45900.00000 0 -15965790.690 -4841874.062 -19275495.851 10 0 60612 46800.00000 0 -13599347.008 -5579330.260 -20827602.976 10 0 60612 47700.00000 0 -11138687.798 -6549345.254 -21974469.799 10 0 60612 48600.00000 0 -8651287.617 -7745143.917 -22693780.104 10 0 60612 49500.00000 0 -6203338.706 -9147742.364 -22971547.470 10 0 60612 50400.00000 0 -3857178.880 -10726575.434 -22802387.237 10 0 60612 51300.00000 0 -1668894.036 -12440626.995 -22189619.951 10 0 60612 52200.00000 0 313805.166 -14240016.234 -21145204.442 10 0 60612 53100.00000 0 2053344.503 -16067973.834 -19689501.955 10 0 60612 54000.00000 0 3523612.721 -17863125.415 -17850876.054 10 0 60612 54900.00000 0 4710799.180 -19561986.622 -15665136.197 10 0 60612 55800.00000 0 5613709.004 -21101565.172 -13174835.939 10 0 60612 56700.00000 0 6243544.206 -22421960.625 -10428439.669 10 0 60612 57600.00000 0 6623161.749 -23468852.647 -7479374.334 10 0 60612 58500.00000 0 6785841.564 -24195773.160 -4384985.046 10 0 60612 59400.00000 0 6773618.204 -24566066.968 -1205415.368 10 0 60612 60300.00000 0 6635248.154 -24554458.540 1997565.436 10 0 60612 61200.00000 0 6423900.048 -24148159.370 5161764.819 10 0 60612 62100.00000 0 6194666.548 -23347469.768 8225775.225 10 0 60612 63000.00000 0 6002003.895 -22165850.200 11130164.486 10 0 60612 63900.00000 0 5897207.857 -20629459.698 13818625.144 10 0 60612 64800.00000 0 5926032.939 -18776181.023 16239060.605 10 0 60612 65700.00000 0 6126555.330 -16654173.629 18344587.574 10 0 60612 66600.00000 0 6527369.572 -14320014.905 20094436.052 10 0 60612 67500.00000 0 7146194.721 -11836506.991 21454730.394 10 0 60612 68400.00000 0 7988948.573 -9270239.908 22399137.314 10 0 60612 69300.00000 0 9049328.937 -6689011.558 22909369.260 10 0 60612 70200.00000 0 10308919.965 -4159210.658 22975534.259 10 0 60612 71100.00000 0 11737819.774 -1743269.960 22596326.037 10 0 60612 72000.00000 0 13295764.148 502705.905 21779050.979 10 0 60612 72900.00000 0 14933700.548 2531040.865 20539491.302 10 0 60612 73800.00000 0 16595748.045 4304230.206 18901606.599 10 0 60612 74700.00000 0 18221462.602 5796254.344 16897078.755 10 0 60612 75600.00000 0 19748314.257 6993409.814 14564708.048 10 0 60612 76500.00000 0 21114273.541 7894623.508 11949671.003 10 0 60612 77400.00000 0 22260399.425 8511237.501 9102653.327 10 0 60612 78300.00000 0 23133320.608 8866273.895 6078873.800 10 0 60612 79200.00000 0 23687505.806 8993210.808 2937017.359 10 0 60612 80100.00000 0 23887227.084 8934321.277 -261902.262 10 0 60612 81000.00000 0 23708132.731 8738645.385 -3455728.323 10 0 60612 81900.00000 0 23138362.340 8459681.705 -6582372.008 10 0 60612 82800.00000 0 22179156.008 8152896.269 -9581024.365 10 0 60612 83700.00000 0 20844930.673 7873155.164 -12393345.050 10 0 60612 84600.00000 0 19162819.224 7672190.309 -14964603.966 10 0 60612 85500.00000 0 17171690.744 7596206.648 -17244752.825 10 0 60613 0.00000 0 14920692.349 7683733.035 -19189404.994 10 0 60613 900.00000 0 12467371.916 7963808.833 -20760705.060 10 0 60613 1800.00000 0 9875462.987 8454583.724 -21928068.347 10 0 60613 2700.00000 0 7212420.181 9162390.947 -22668779.310 10 0 60613 3600.00000 0 4546810.804 10081333.831 -22968434.522 10 0 60613 4500.00000 0 1945670.162 11193403.813 -22821222.797 10 0 60613 5400.00000 0 -528069.223 12469125.586 -22230037.000 10 0 60613 6300.00000 0 -2817967.747 13868702.722 -21206415.483 10 0 60613 7200.00000 0 -4876189.144 15343615.922 -19770314.464 10 0 60613 8100.00000 0 -6665244.004 16838606.941 -17949715.868 10 0 60613 9000.00000 0 -8159294.695 18293964.812 -15780078.392 10 0 60613 9900.00000 0 -9344968.448 19648018.249 -13303642.599 10 0 60613 10800.00000 0 -10221646.121 20839729.227 -10568603.781 10 0 60613 11700.00000 0 -10801216.240 21811278.495 -7628168.937 10 0 60613 12600.00000 0 -11107306.478 22510533.969 -4539516.647 10 0 60613 13500.00000 0 -11174026.686 22893297.975 -1362680.521 10 0 60613 14400.00000 0 -11044278.253 22925238.655 1840621.510 10 0 60613 15300.00000 0 -10767702.641 22583424.239 5008188.755 10 0 60613 16200.00000 0 -10398357.068 21857395.773 8078546.364 10 0 60613 17100.00000 0 -9992216.542 20749733.391 10992137.218 10 0 60613 18000.00000 0 -9604608.418 19276092.561 13692473.831 10 0 60613 18900.00000 0 -9287688.163 17464709.001 16127228.154 10 0 60613 19800.00000 0 -9088062.856 15355393.047 18249238.602 10 0 60613 20700.00000 0 -9044662.424 12998055.395 20017415.500 10 0 60613 21600.00000 0 -9186947.929 10450825.414 21397528.336 10 0 60613 22500.00000 0 -9533531.914 7777839.738 22362860.579 10 0 60613 23400.00000 0 -10091268.565 5046792.238 22894720.369 10 0 60613 24300.00000 0 -10854851.814 2326345.998 22982798.029 10 0 60613 25200.00000 0 -11806938.538 -316486.688 22625364.092 10 0 60613 26100.00000 0 -12918792.243 -2818888.986 21829304.268 10 0 60613 27000.00000 0 -14151421.144 -5124604.807 20609990.586 10 0 60613 27900.00000 0 -15457164.087 -7186027.911 18990990.733 10 0 60613 28800.00000 0 -16781659.094 -8965929.239 17003620.475 10 0 60613 29700.00000 0 -18066113.237 -10438751.644 14686346.814 10 0 60613 30600.00000 0 -19249779.708 -11591418.828 12084052.325 10 0 60613 31500.00000 0 -20272538.913 -12423625.282 9247173.881 10 0 60613 32400.00000 0 -21077475.596 -12947595.521 6230731.511 10 0 60613 33300.00000 0 -21613343.599 -13187322.887 3093265.492 10 0 60613 34200.00000 0 -21836814.162 -13177320.243 -104298.022 10 0 60613 35100.00000 0 -21714412.160 -12960935.278 -3299830.918 10 0 60613 36000.00000 0 -21224057.606 -12588301.875 -6431213.354 10 0 60613 36900.00000 0 -20356146.149 -12114014.552 -9437546.176 10 0 60613 37800.00000 0 -19114121.611 -11594624.837 -12260341.333 10 0 60613 38700.00000 0 -17514515.068 -11086066.218 -14844666.306 10 0 60613 39600.00000 0 -15586447.396 -10641117.347 -17140219.578 10 0 60613 40500.00000 0 -13370615.107 -10307011.702 -19102315.557 10 0 60613 41400.00000 0 -10917800.982 -10123295.593 -20692759.297 10 0 60613 42300.00000 0 -8286971.215 -10120025.850 -21880593.679 10 0 60613 43200.00000 0 -5543038.044 -10316383.978 -22642704.380 10 0 60613 44100.00000 0 -2754380.886 -10719765.897 -22964270.871 10 0 60613 45000.00000 0 9770.912 -11325386.093 -22839054.744 10 0 60613 45900.00000 0 2681984.972 -12116413.249 -22269519.929 10 0 60613 46800.00000 0 5199192.541 -13064631.858 -21266782.588 10 0 60613 47700.00000 0 7505068.443 -14131602.099 -19850391.805 10 0 60613 48600.00000 0 9552125.833 -15270269.115 -18047945.453 10 0 60613 49500.00000 0 11303439.260 -16426953.859 -15894548.793 10 0 60613 50400.00000 0 12733925.167 -17543641.452 -13432126.508 10 0 60613 51300.00000 0 13831127.648 -18560470.369 -10708601.733 10 0 60613 52200.00000 0 14595478.066 -19418317.254 -7776958.336 10 0 60613 53100.00000 0 15040019.331 -20061368.047 -4694205.092 10 0 60613 54000.00000 0 15189608.201 -20439566.706 -1520262.386 10 0 60613 54900.00000 0 15079630.933 -20510838.034 1683206.400 10 0 60613 55800.00000 0 14754288.071 -20242990.731 4853995.500 10 0 60613 56700.00000 0 14264522.155 -19615220.409 7930565.614 10 0 60613 57600.00000 0 13665676.997 -18619149.297 10853237.204 10 0 60613 58500.00000 0 13014988.141 -17259358.950 13565344.946 10 0 60613 59400.00000 0 12369010.855 -15553393.600 16014331.123 10 0 60613 60300.00000 0 11781094.236 -13531233.932 18152757.228 10 0 60613 61200.00000 0 11299007.643 -11234263.063 19939214.857 10 0 60613 62100.00000 0 10962818.939 -8713767.464 21339119.152 10 0 60613 63000.00000 0 10803113.214 -6029034.573 22325370.461 10 0 60613 63900.00000 0 10839626.237 -3245125.322 22878872.350 10 0 60613 64800.00000 0 11080349.591 -430412.903 22988896.831 10 0 60613 65700.00000 0 11521144.771 2346011.475 22653290.328 10 0 60613 66600.00000 0 12145882.530 5016959.706 21878516.696 10 0 60613 67500.00000 0 12927102.005 7519687.614 20679536.371 10 0 60613 68400.00000 0 13827162.669 9798251.524 19079523.552 10 0 60613 69300.00000 0 14799841.693 11805584.009 17109426.150 10 0 60613 70200.00000 0 15792310.666 13505203.561 14807376.023 10 0 60613 71100.00000 0 16747409.650 14872487.853 12217959.816 10 0 60613 72000.00000 0 17606123.729 15895458.012 9391363.482 10 0 60613 72900.00000 0 18310158.378 16575041.420 6382406.078 10 0 60613 73800.00000 0 18804505.416 16924802.441 3249480.924 10 0 60613 74700.00000 0 19039891.076 16970152.335 53424.235 10 0 60613 75600.00000 0 18975002.187 16747071.654 -3143666.901 10 0 60613 76500.00000 0 18578395.637 16300399.318 -6279643.967 10 0 60613 77400.00000 0 17830009.159 15681760.744 -9293519.868 10 0 60613 78300.00000 0 16722208.272 14947223.001 -12126660.935 10 0 60613 79200.00000 0 15260323.668 14154776.585 -14723934.149 10 0 60613 80100.00000 0 13462654.810 13361750.887 -17034786.486 10 0 60613 81000.00000 0 11359938.201 12622273.267 -19014234.758 10 0 60613 81900.00000 0 8994301.319 11984879.758 -20623746.183 10 0 60613 82800.00000 0 6417745.036 11490378.928 -21831992.211 10 0 60613 83700.00000 0 3690217.151 11170059.564 -22615460.794 10 0 60613 84600.00000 0 877356.863 11044318.142 -22958915.185 10 0 60613 85500.00000 0 -1951996.220 11121764.183 -22855690.433 10 0 60614 0.00000 0 -4728424.853 11398841.243 -22307822.006 10 0 60614 900.00000 0 -7384581.354 11859979.628 -21326003.839 10 0 60614 1800.00000 0 -9857745.680 12478273.806 -19929377.587 10 0 60614 2700.00000 0 -12092193.277 13216656.194 -18145156.313 10 0 60614 3600.00000 0 -14041270.976 14029517.172 -16008090.681 10 0 60614 4500.00000 0 -15669096.634 14864702.690 -13559787.950 10 0 60614 5400.00000 0 -16951812.336 15665804.747 -10847897.236 10 0 60614 6300.00000 0 -17878340.003 16374647.557 -7925177.143 10 0 60614 7200.00000 0 -18450609.170 16933863.981 -4848464.313 10 0 60614 8100.00000 0 -18683248.993 17289452.935 -1677563.414 10 0 60614 9000.00000 0 -18602759.062 17393209.404 1525919.327 10 0 60614 9900.00000 0 -18246195.581 17204924.112 4699775.775 10 0 60614 10800.00000 0 -17659429.740 16694259.828 7782404.959 10 0 60614 11700.00000 0 -16895053.000 15842225.018 10714007.748 10 0 60614 12600.00000 0 -16010018.552 14642182.701 13437743.811 10 0 60614 13500.00000 0 -15063119.004 13100351.966 15900828.551 10 0 60614 14400.00000 0 -14112406.753 11235780.918 18055549.227 10 0 60614 15300.00000 0 -13212665.505 9079791.860 19860181.219 10 0 60614 16200.00000 0 -12413038.833 6674921.403 21279787.603 10 0 60614 17100.00000 0 -11754914.690 4073398.924 22286887.571 10 0 60614 18000.00000 0 -11270153.931 1335225.764 22861981.726 10 0 60614 18900.00000 0 -10979736.327 -1474066.241 22993924.962 10 0 60614 19800.00000 0 -10892880.224 -4285885.255 22680140.337 10 0 60614 20700.00000 0 -11006672.282 -7031178.000 21926670.102 10 0 60614 21600.00000 0 -11306222.731 -9643050.145 20748062.846 10 0 60614 22500.00000 0 -11765339.776 -12059301.343 19167098.516 10 0 60614 23400.00000 0 -12347695.342 -14224770.978 17214355.893 10 0 60614 24300.00000 0 -13008433.840 -16093398.253 14927629.941 10 0 60614 25200.00000 0 -13696157.108 -17629911.720 12351209.193 10 0 60614 26100.00000 0 -14355202.674 -18811078.325 9535026.122 10 0 60614 27000.00000 0 -14928119.902 -19626460.122 6533695.985 10 0 60614 27900.00000 0 -15358239.904 -20078647.136 3405462.074 10 0 60614 28800.00000 0 -15592230.593 -20182956.545 211067.403 10 0 60614 29700.00000 0 -15582528.554 -19966610.857 -2987425.294 10 0 60614 30600.00000 0 -15289543.982 -19467429.509 -6127842.220 10 0 60614 31500.00000 0 -14683544.357 -18732089.231 -9149111.762 10 0 60614 32400.00000 0 -13746135.976 -17814026.915 -11992458.013 10 0 60614 33300.00000 0 -12471279.066 -16771073.694 -14602550.712 10 0 60614 34200.00000 0 -10865792.060 -15662920.619 -16928588.398 10 0 60614 35100.00000 0 -8949322.188 -14548523.476 -18925293.047 10 0 60614 36000.00000 0 -6753782.091 -13483556.769 -20553796.401 10 0 60614 36900.00000 0 -4322274.782 -12518024.747 -21782400.335 10 0 60614 37800.00000 0 -1707550.856 -11694130.555 -22587196.359 10 0 60614 38700.00000 0 1029938.482 -11044493.501 -22952532.203 10 0 60614 39600.00000 0 3824311.975 -10590789.531 -22871316.461 10 0 60614 40500.00000 0 6606758.316 -10342872.031 -22345155.536 10 0 60614 41400.00000 0 9308161.921 -10298409.633 -21384320.368 10 0 60614 42300.00000 0 11861745.417 -10443055.804 -20007543.698 10 0 60614 43200.00000 0 14205619.201 -10751142.506 -18241651.957 10 0 60614 44100.00000 0 16285132.291 -11186868.000 -16121039.006 10 0 60614 45000.00000 0 18054926.955 -11705928.008 -13686992.108 10 0 60614 45900.00000 0 19480612.123 -12257520.617 -10986883.439 10 0 60614 46800.00000 0 20539986.543 -12786639.539 -8073243.110 10 0 60614 47700.00000 0 21223761.616 -13236558.115 -5002732.137 10 0 60614 48600.00000 0 21535754.933 -13551398.396 -1835035.809 10 0 60614 49500.00000 0 21492547.846 -13678676.139 1368300.525 10 0 60614 50400.00000 0 21122622.968 -13571713.644 4545070.014 10 0 60614 51300.00000 0 20465019.351 -13191818.146 7633613.466 10 0 60614 52200.00000 0 19567563.269 -12510133.498 10574015.301 10 0 60614 53100.00000 0 18484750.161 -11509086.877 13309262.906 10 0 60614 54000.00000 0 17275367.620 -10183369.391 15786347.075 10 0 60614 54900.00000 0 15999959.794 -8540409.138 17957282.608 10 0 60614 55800.00000 0 14718239.753 -6600316.508 19780029.950 10 0 60614 56700.00000 0 13486558.125 -4395303.483 21219300.917 10 0 60614 57600.00000 0 12355533.472 -1968600.402 22247233.907 10 0 60614 58500.00000 0 11367942.863 627085.615 22843926.496 10 0 60614 59400.00000 0 10556959.991 3331507.719 22997816.008 10 0 60614 60300.00000 0 9944813.634 6079132.769 22705901.319 10 0 60614 61200.00000 0 9541921.786 8801619.172 21973801.940 10 0 60614 62100.00000 0 9346537.120 11430417.873 20815653.185 10 0 60614 63000.00000 0 9344918.309 13899390.118 19253839.061 10 0 60614 63900.00000 0 9512020.010 16147334.639 17318567.324 10 0 60614 64800.00000 0 9812672.777 18120320.384 15047293.961 10 0 60614 65700.00000 0 10203203.732 19773728.562 12484007.159 10 0 60614 66600.00000 0 10633430.245 21073919.348 9678383.530 10 0 60614 67500.00000 0 11048943.056 21999453.996 6684832.032 10 0 60614 68400.00000 0 11393582.770 22541821.220 3561443.336 10 0 60614 69300.00000 0 11612005.088 22705637.217 368864.655 10 0 60614 70200.00000 0 11652226.018 22508310.692 -2830878.263 10 0 60614 71100.00000 0 11468038.666 21979186.729 -5975588.913 10 0 60614 72000.00000 0 11021198.379 21158205.507 -9004113.550 10 0 60614 72900.00000 0 10283282.500 20094132.314 -11857536.254 10 0 60614 73800.00000 0 9237144.598 18842433.658 -14480331.520 10 0 60614 74700.00000 0 7877900.140 17462889.278 -16821451.189 10 0 60614 75600.00000 0 6213400.313 16017041.046 -18835323.929 10 0 60614 76500.00000 0 4264172.425 14565586.696 -20482747.305 10 0 60614 77400.00000 0 2062827.874 13165828.524 -21731654.733 10 0 60614 78300.00000 0 -347038.811 11869284.709 -22557742.221 10 0 60614 79200.00000 0 -2912414.914 10719563.858 -22944942.695 10 0 60614 80100.00000 0 -5572833.940 9750592.078 -22885738.784 10 0 60614 81000.00000 0 -8262658.183 8985266.815 -22381308.079 10 0 60614 81900.00000 0 -10913584.814 8434593.529 -21441498.248 10 0 60614 82800.00000 0 -13457271.418 8097340.843 -20084632.574 10 0 60614 83700.00000 0 -15827971.863 7960227.785 -18337149.866 10 0 60614 84600.00000 0 -17965072.988 7998634.313 -16233085.798 10 0 60614 85500.00000 0 -19815426.592 8177804.102 -13813405.918 10 0 60615 0.00000 0 -21335379.742 8454487.813 -11125203.727 10 0 60615 900.00000 0 -22492419.886 8778956.555 -8220778.172 10 0 60615 1800.00000 0 -23266364.767 9097299.090 -5156612.555 10 0 60615 2700.00000 0 -23650050.960 9353905.253 -1992270.375 10 0 60615 3600.00000 0 -23649491.197 9494029.377 1210766.380 10 0 60615 4500.00000 0 -23283496.014 9466324.789 4390294.682 10 0 60615 5400.00000 0 -22582776.777 9225241.622 7484599.716 10 0 60615 6300.00000 0 -21588569.043 8733186.257 10433652.082 10 0 60615 7200.00000 0 -20350835.206 7962350.918 13180269.534 10 0 60615 8100.00000 0 -18926122.817 6896136.070 15671220.860 10 0 60615 9000.00000 0 -17375169.000 5530105.500 17858250.903 10 0 60615 9900.00000 0 -15760351.611 3872433.626 19699007.502 10 0 60615 10800.00000 0 -14143093.757 1943825.814 21157853.292 10 0 60615 11700.00000 0 -12581329.684 -223085.705 22206547.646 10 0 60615 12600.00000 0 -11127137.219 -2584846.013 22824786.528 10 0 60615 13500.00000 0 -9824634.625 -5088736.972 23000590.719 10 0 60615 14400.00000 0 -8708228.592 -7674728.505 22730535.541 10 0 60615 15300.00000 0 -7801285.470 -10277742.118 22019817.976 10 0 60615 16200.00000 0 -7115280.315 -12830134.241 20882159.865 10 0 60615 17100.00000 0 -6649458.581 -15264297.842 19339548.674 10 0 60615 18000.00000 0 -6391024.192 -17515275.582 17421820.122 10 0 60615 18900.00000 0 -6315845.870 -19523277.077 15166089.833 10 0 60615 19800.00000 0 -6389652.148 -21235996.295 12616043.887 10 0 60615 20700.00000 0 -6569664.946 -22610633.051 9821100.973 10 0 60615 21600.00000 0 -6806603.159 -23615534.398 6835461.418 10 0 60615 22500.00000 0 -7046971.897 -24231387.102 3717060.716 10 0 60615 23400.00000 0 -7235540.667 -24451911.085 526447.527 10 0 60615 24300.00000 0 -7317905.470 -24284024.137 -2674392.273 10 0 60615 25200.00000 0 -7243025.779 -23747470.506 -5823242.468 10 0 60615 26100.00000 0 -6965628.178 -22873928.713 -8858870.312 10 0 60615 27000.00000 0 -6448373.730 -21705635.832 -11722223.044 10 0 60615 27900.00000 0 -5663696.034 -20293586.052 -14357583.077 10 0 60615 28800.00000 0 -4595230.659 -18695379.374 -16713658.642 10 0 60615 29700.00000 0 -3238773.992 -16972811.212 -18744587.994 10 0 60615 30600.00000 0 -1602729.405 -15189304.543 -20410837.143 10 0 60615 31500.00000 0 291979.593 -13407292.893 -21679973.267 10 0 60615 32400.00000 0 2412527.032 -11685664.283 -22527298.621 10 0 60615 33300.00000 0 4715308.364 -10077373.544 -22936332.583 10 0 60615 34200.00000 0 7147524.544 -8627323.095 -22899132.524 10 0 60615 35100.00000 0 9649160.932 -7370600.770 -22416447.430 10 0 60615 36000.00000 0 12155279.046 -6331148.021 -21497701.405 10 0 60615 36900.00000 0 14598525.928 -5520913.603 -20160807.531 10 0 60615 37800.00000 0 16911756.748 -4939527.265 -18431815.801 10 0 60615 38700.00000 0 19030661.462 -4574505.959 -16344402.067 10 0 60615 39600.00000 0 20896286.030 -4401982.638 -13939208.080 10 0 60615 40500.00000 0 22457343.086 -4387925.561 -11263045.633 10 0 60615 41400.00000 0 23672215.810 -4489795.349 -8367980.527 10 0 60615 42300.00000 0 24510571.525 -4658568.525 -5310314.563 10 0 60615 43200.00000 0 24954518.081 -4841040.819 -2149485.837 10 0 60615 44100.00000 0 24999255.349 -4982311.789 1053090.790 10 0 60615 45000.00000 0 24653195.421 -5028344.744 4235219.908 10 0 60615 45900.00000 0 23937547.542 -4928492.987 7335134.749 10 0 60615 46800.00000 0 22885386.275 -4637885.037 10292695.514 10 0 60615 47700.00000 0 21540243.028 -4119567.662 13050553.396 10 0 60615 48600.00000 0 19954280.865 -3346316.057 15555257.828 10 0 60615 49500.00000 0 18186129.675 -2302034.644 17758285.902 10 0 60615 50400.00000 0 16298472.649 -982689.332 19616974.596 10 0 60615 51300.00000 0 14355484.882 603268.287 21095338.671 10 0 60615 52200.00000 0 12420230.655 2435003.147 22164759.348 10 0 60615 53100.00000 0 10552127.269 4479921.849 22804531.443 10 0 60615 54000.00000 0 8804580.139 6694795.696 23002259.254 10 0 60615 54900.00000 0 7222886.544 9027336.132 22754094.208 10 0 60615 55800.00000 0 5842494.160 11418158.451 22064810.031 10 0 60615 56700.00000 0 4687685.817 13803053.682 20947713.988 10 0 60615 57600.00000 0 3770744.297 16115475.740 19424395.542 10 0 60615 58500.00000 0 3091631.297 18289141.826 17524316.606 10 0 60615 59400.00000 0 2638193.393 20260639.073 15284250.378 10 0 60615 60300.00000 0 2386886.053 21971929.791 12747578.549 10 0 60615 61200.00000 0 2303985.195 23372651.331 9963459.401 10 0 60615 62100.00000 0 2347235.288 24422114.649 6985881.955 10 0 60615 63000.00000 0 2467864.520 25090917.975 3872623.753 10 0 60615 63900.00000 0 2612881.955 25362107.393 684132.046 10 0 60615 64800.00000 0 2727559.300 25231835.004 -2517650.060 10 0 60615 65700.00000 0 2757991.805 24709486.442 -5670489.482 10 0 60615 66600.00000 0 2653629.152 23817271.620 -8713077.181 10 0 60615 67500.00000 0 2369668.149 22589295.378 -11586226.072 10 0 60615 68400.00000 0 1869204.735 21070146.755 -14234028.778 10 0 60615 69300.00000 0 1125052.840 19313065.895 -16604951.950 10 0 60615 70200.00000 0 121151.702 17377765.626 -18652845.198 10 0 60615 71100.00000 0 -1146499.331 15327999.262 -20337844.486 10 0 60615 72000.00000 0 -2669419.432 13228976.924 -21627152.029 10 0 60615 72900.00000 0 -4426757.555 11144738.830 -22495677.361 10 0 60615 73800.00000 0 -6385932.925 9135595.704 -22926527.077 10 0 60615 74700.00000 0 -8503779.060 7255743.425 -22911333.768 10 0 60615 75600.00000 0 -10728144.282 5551151.467 -22450417.935 10 0 60615 76500.00000 0 -12999882.516 4057812.958 -21552779.858 10 0 60615 77400.00000 0 -15255151.613 2800428.853 -20235921.714 10 0 60615 78300.00000 0 -17427923.487 1791580.290 -18525503.549 10 0 60615 79200.00000 0 -19452601.399 1031422.570 -16454839.859 10 0 60615 80100.00000 0 -21266635.002 507912.173 -14064246.716 10 0 60615 81000.00000 0 -22813023.903 197555.737 -11400252.302 10 0 60615 81900.00000 0 -24042605.020 66647.848 -8514686.427 10 0 60615 82800.00000 0 -24916028.084 72943.930 -5463667.139 10 0 60615 83700.00000 0 -25405336.796 167696.095 -2306504.563 10 0 60615 84600.00000 0 -25495089.763 297964.614 895456.200 10 0 60615 85500.00000 0 -25182974.778 409106.138 4080030.029 99